Weather in Abadan

Turkmenistan     38°03′01″N   58°11′09″E
temp.,
°C
wind,
m/s
gust,
m/s
humid.,
%
clouds,
%
prec.,
mm/h
press.,
hPa
HPBL,
m
12 august, fri
fri1223:00+30e45190 0.0 10121132
02:00+28ese46210 0.0 1012624
05:00+27se35220 0.0 1012548
08:00+28ese35210 0.0 1013884
11:00+30e55170 0.0 10121996
14:00+32e34150 0.0 10112139
17:00+33e34140 0.0 10102408
20:00+32e23160 0.0 10101261
13 august, sat
sat1323:00+30sse12190 0.0 1010436
02:00+29se12200 0.0 101064
05:00+28sse11210 0.0 101050
08:00+29e12200 0.0 1011268
11:00+32ene33160 0.0 10111306
14:00+34ene33140 0.0 10092474
17:00+35ne33120 0.0 10072785
20:00+33nne23140 0.0 10081399
14 august, sun
sun1423:00+31e35150 0.0 1008628
02:00+30s12180 0.0 1007264
05:00+28wsw11190 0.0 100720
08:00+30wnw11180 0.0 1008183
11:00+32ne22160 0.0 10091191
14:00+34e33150 0.0 10082833
17:00+36nne23130 0.0 10063067
20:00+34nne33130 0.0 10061496
15 august, mon
mon1523:00+32ene24160 0.0 1007371
02:00+30sw11170 0.0 100616
05:00+29w11180 0.0 100614
08:00+30wsw11180 0.0 1008172
11:00+34n22150 0.0 10081308
14:00+36nne22130 0.0 10072821
17:00+37n53120 0.0 10062974
20:00+34n34140 0.0 1007863
16 august, tue
tue1623:00+32wnw22150 0.0 1008131
02:00+31w11170 0.0 100828
05:00+30nw11170 0.0 100814
08:00+30wnw12170 0.0 1010150
11:00+34n33150 0.0 10111009
14:00+36nne44140 0.0 10092864
17:00+37nne55130 0.0 10083164
20:00+34nne55130 0.0 1009975